Tracking 25734 objects as of 28-May-2022
HD Live streaming from Space Station
objects crossing your sky now

BREEZE-M R/B

Track BREEZE-M R/B now!


NORAD ID: 43433
Int'l Code: 2018-037B
Perigee: 35,600.1 km
Apogee: 41,943.6 km
Inclination: 3.9 °
Period: 1,590.9 minutes
Semi major axis: 45142 km
RCS: Unknown
Launch date: April 18, 2018
Source: Commonwealth of Independent States (former USSR) (CIS)
Launch site: TYURATAM MISSILE AND SPACE COMPLEX (TTMTR)

Note: This is a ROCKET BODY
aabbcc
Your satellite tracking list
Your tracking list is empty




NASA's NSSDC Master Catalog

Two Line Element Set (TLE):
1 43433U 18037B   22147.70364682 -.00000172  00000-0  00000+0 0  9998
2 43433   3.8975  86.2423 0702605 354.6885   4.3142  0.90514763 13783
Source of the keplerian elements: AFSPC